Wind_Speed
30 30 29 27 23 19 19 19 15 15 15 14 14 15 16 18 20 20 21 22 22 22 22 23 24 25 25 24 23 22 20 17 15 14 14 15 14 13 13 12 11 11 11 11 11 11 11 11 11 11 10 8 7 6 4 3 2 2 1 1 0 2 4
29 28 27 26 23 21 21 21 17 16 16 16 15 15 15 17 19 20 21 22 23 22 22 22 24 25 26 26 25 23 21 18 16 16 15 15 15 15 14 14 13 12 11 11 12 11 11 11 11 11 9 8 7 5 4 3 2 2 2 1 2 4 5
28 26 27 27 25 22 22 21 19 18 18 17 15 14 13 15 19 21 22 23 24 24 23 23 23 25 26 27 26 25 23 20 18 17 17 17 17 17 16 15 14 13 13 12 12 12 12 11 11 10 9 8 7 6 5 4 3 3 3 3 3 4 5
25 21 23 27 26 24 24 23 23 22 22 20 17 15 14 16 19 21 22 23 24 24 23 23 24 25 26 27 27 26 25 22 20 18 18 18 18 18 17 17 16 15 14 14 14 14 13 12 12 11 10 9 8 7 6 5 4 4 4 4 4 4 4
24 21 20 22 23 24 25 24 24 24 23 21 18 16 15 16 18 19 20 21 22 23 24 25 26 27 27 28 28 28 26 25 23 21 20 19 18 18 17 17 17 17 16 16 16 15 14 14 13 12 11 10 9 8 7 6 6 6 6 5 4 3 3
31 26 24 22 21 22 23 23 23 23 22 20 18 17 17 18 18 18 18 19 20 22 24 25 25 26 27 28 28 29 28 27 24 22 21 20 19 17 17 18 18 18 18 17 17 17 16 15 15 13 12 11 10 9 8 8 7 7 6 6 4 3 2
35 31 30 30 27 24 22 22 23 25 24 22 20 19 18 19 20 19 19 18 18 20 22 24 24 24 25 27 28 29 29 28 26 24 23 22 20 18 18 19 19 19 19 18 18 18 18 17 16 15 14 12 11 11 10 9 9 8 7 6 5 4 3
34 33 34 35 31 27 24 23 24 26 26 25 24 21 19 20 21 20 18 17 17 17 19 22 23 23 23 25 26 28 29 29 28 27 25 23 22 20 19 19 19 20 19 19 19 19 19 19 18 16 15 14 13 13 12 11 10 9 9 8 6 5 4
31 32 34 34 31 27 26 27 27 27 28 27 25 23 22 22 22 20 17 15 16 15 17 20 22 23 24 24 25 27 29 30 29 28 26 25 23 22 21 20 20 20 20 20 20 20 20 20 19 18 16 15 15 14 13 12 12 11 10 9 7 6 6
29 31 33 35 32 27 26 28 30 29 29 29 26 24 24 23 22 19 17 14 13 14 15 18 22 24 25 24 24 26 28 29 30 29 27 26 25 24 23 22 21 21 21 21 21 21 21 21 20 19 17 16 16 15 15 14 13 13 11 10 8 8 7
26 29 34 36 34 29 27 30 33 31 29 29 26 24 24 23 20 18 16 15 13 13 14 15 19 22 24 25 25 25 26 28 29 29 28 27 27 27 26 24 23 22 22 22 22 22 22 22 21 20 19 18 17 17 16 16 15 14 13 11 10 9 9
25 29 33 35 33 32 30 30 33 33 30 29 28 25 25 24 21 18 17 18 16 14 13 12 14 19 23 25 25 25 25 26 27 27 28 28 28 28 28 26 25 23 23 23 23 23 23 23 22 22 21 20 19 19 18 17 16 15 14 13 12 11 11
22 27 30 31 30 31 31 29 30 32 31 29 28 27 27 26 23 20 20 20 19 17 14 11 11 15 20 24 25 24 24 24 24 25 26 27 28 29 29 28 27 25 24 23 24 24 24 24 24 23 23 22 21 21 20 19 17 16 15 14 13 13 13
24 26 29 32 31 32 32 28 28 31 32 30 29 30 29 28 25 23 24 24 22 21 17 12 11 12 16 21 23 23 23 23 23 24 25 26 28 29 29 29 28 27 26 25 24 24 24 24 25 25 24 24 23 22 21 19 17 16 16 16 15 15 14
32 32 32 33 33 34 33 29 30 32 33 32 33 33 32 29 27 26 26 27 25 24 19 14 12 13 14 17 20 22 23 23 23 23 23 25 26 27 28 29 29 28 27 26 25 25 24 25 25 25 25 25 24 22 21 19 18 17 17 17 17 17 16
40 39 38 35 32 32 31 29 30 33 35 35 36 36 34 31 29 29 29 29 28 25 21 15 13 13 14 15 18 21 23 24 22 22 22 22 23 24 26 28 29 29 28 27 27 26 26 25 25 25 25 25 25 24 22 20 19 18 18 19 19 18 18
46 45 43 39 35 34 34 34 34 36 38 39 39 39 38 35 34 33 33 33 30 27 23 18 14 13 14 15 17 19 21 23 22 22 21 21 21 23 24 27 28 29 28 28 28 28 27 26 25 25 25 25 25 25 24 22 21 20 20 20 20 20 19
46 48 46 43 40 38 38 39 40 40 41 43 43 43 42 41 40 40 38 34 30 27 24 19 14 14 15 17 17 18 19 21 22 22 21 21 21 21 23 25 26 27 27 27 28 29 29 27 26 25 25 25 25 25 25 23 23 22 21 21 22 21 20
42 47 46 46 44 41 38 39 40 41 42 43 44 43 42 43 44 42 38 34 30 28 25 20 16 16 17 18 18 18 18 19 21 22 22 21 21 21 22 22 23 24 25 26 27 29 29 29 28 27 26 25 25 25 25 24 23 23 23 23 23 23 22
40 43 44 45 43 40 38 37 36 39 41 42 44 44 43 43 40 37 36 34 32 30 27 22 20 20 19 19 19 18 18 18 19 20 22 22 22 22 21 21 21 22 23 24 25 27 28 29 29 29 28 27 26 25 25 24 23 23 24 25 25 24 23
40 40 42 44 42 40 38 36 36 38 40 41 42 42 43 42 39 37 36 34 32 30 28 26 24 22 21 21 21 20 19 18 18 19 20 21 22 22 22 22 21 22 22 22 23 24 26 28 29 29 29 28 28 27 26 25 23 23 24 25 26 25 24
41 39 40 43 44 44 42 41 39 39 39 39 39 40 42 42 41 39 36 32 29 28 29 28 26 23 22 22 22 21 20 18 18 18 18 19 20 20 21 22 22 22 22 22 22 22 24 25 26 27 28 28 28 28 27 26 25 24 24 26 26 26 24
42 41 41 42 44 45 45 44 43 41 40 39 38 40 43 42 40 38 33 28 27 27 27 28 26 23 21 21 22 22 21 20 18 18 18 17 17 18 19 21 22 22 23 23 23 23 23 24 25 25 26 28 28 28 28 28 27 26 26 27 27 25 24
42 41 41 43 44 45 45 45 44 43 42 39 38 40 41 39 39 36 31 27 27 26 27 27 25 22 20 21 22 22 22 22 21 20 19 18 17 17 18 20 21 22 23 23 23 24 24 25 25 25 25 26 27 28 28 28 28 28 27 28 27 25 23
44 42 41 42 44 45 46 45 44 43 42 41 41 41 41 40 39 36 32 30 29 28 27 25 25 23 20 21 23 23 23 24 23 22 21 19 19 18 18 19 21 22 23 23 23 24 25 26 26 26 25 25 26 27 27 27 27 28 28 28 27 25 24
42 42 40 40 43 44 44 44 44 44 44 43 43 42 42 42 41 38 35 33 31 30 27 24 24 24 22 23 25 24 24 24 24 23 22 20 20 20 20 20 21 22 23 23 24 25 25 26 26 26 25 25 26 26 26 26 26 27 28 28 27 26 25
43 42 40 40 41 43 44 44 44 46 46 45 44 44 43 42 41 39 36 34 33 30 28 26 25 24 23 25 26 25 24 24 24 24 22 22 22 22 21 21 21 22 23 24 25 25 25 25 26 26 26 25 25 25 26 26 26 26 27 28 27 26 25
50 48 45 43 42 42 44 45 45 47 47 46 45 45 44 43 43 40 37 36 35 31 29 29 27 25 23 25 26 26 25 25 25 24 23 23 23 23 21 21 22 23 24 24 25 25 25 25 26 26 26 25 25 24 25 26 27 26 26 27 27 26 25
53 52 49 47 44 43 43 45 46 47 47 47 46 46 46 45 45 43 42 40 36 33 32 32 30 26 24 24 25 26 26 26 25 24 24 24 24 23 22 22 23 24 24 24 25 25 24 24 25 25 25 25 24 24 24 26 27 26 26 26 26 25 24
49 50 51 49 46 44 43 43 45 47 46 46 47 46 47 47 46 46 45 41 37 36 36 36 33 29 26 25 26 26 26 26 26 24 24 24 24 24 23 23 24 25 24 24 25 24 24 23 24 24 24 24 24 24 24 25 26 26 25 25 25 25 24
51 48 49 49 47 45 44 43 43 45 46 47 46 46 47 47 47 47 45 41 38 39 40 38 36 34 30 27 27 28 27 27 27 25 24 25 25 25 23 24 25 25 24 24 25 24 23 22 23 23 24 24 24 24 24 24 25 25 25 25 25 25 24
60 53 49 48 48 47 46 44 42 43 45 46 46 47 48 47 46 47 45 42 40 42 43 41 38 37 35 32 31 30 29 29 28 27 25 26 26 25 24 25 25 25 24 24 25 24 23 23 23 24 24 24 23 23 24 25 25 26 25 25 25 25 25
60 58 53 48 48 48 47 45 43 42 43 45 46 47 47 47 47 47 45 43 42 44 44 43 41 40 38 36 35 34 32 30 30 28 26 26 26 25 25 26 25 24 24 24 25 25 24 23 23 24 24 23 23 24 25 26 26 26 25 25 25 25 26
56 57 55 51 49 49 48 46 43 42 42 43 45 47 47 47 48 47 44 42 42 44 45 44 42 41 40 40 39 38 35 33 31 29 28 27 26 25 26 26 25 25 25 25 26 26 25 24 23 24 24 24 24 25 26 27 26 25 25 26 26 25 25
54 55 56 53 51 50 49 47 44 42 41 43 45 46 46 47 47 46 43 42 43 44 45 43 42 42 42 42 42 40 38 35 33 31 31 29 28 26 26 26 26 26 26 26 27 27 26 25 25 25 25 25 26 27 27 26 26 26 26 26 25 24 24
50 52 54 53 51 51 49 47 45 43 42 43 45 46 46 47 46 45 43 42 44 45 45 44 43 43 44 44 43 42 40 38 36 35 34 32 29 28 27 27 28 28 27 27 27 27 26 26 26 26 26 27 28 28 27 26 26 27 26 25 23 23 22
48 48 51 52 50 49 49 48 47 45 43 43 45 46 47 46 45 44 43 43 44 46 46 45 43 44 45 45 45 43 42 41 40 38 36 33 30 29 29 30 30 29 28 27 27 28 27 27 27 27 28 28 28 27 27 26 26 26 25 23 22 21 21
50 48 49 50 49 48 48 48 47 46 45 44 45 47 47 45 43 42 42 43 44 46 46 44 44 45 47 47 47 46 45 44 43 40 37 34 32 31 31 32 30 29 28 27 27 28 28 28 28 28 28 27 26 25 25 25 25 25 24 22 21 21 21
Wind_Direction
229 227 226 228 223 221 226 223 221 223 225 224 219 213 208 205 204 206 207 208 211 213 214 215 215 213 211 212 215 216 216 212 204 201 202 205 207 204 200 200 198 194 187 181 175 173 174 175 177 180 181 182 181 181 185 191 206 226 244 259 52 72 78
232 230 226 228 224 221 224 221 218 221 224 226 228 222 216 210 205 203 203 205 210 212 212 214 216 216 215 214 216 217 218 216 209 205 205 207 207 206 203 201 199 195 188 182 177 176 178 181 184 186 186 188 191 195 201 209 217 215 214 192 125 107 98
234 235 229 226 225 223 224 220 215 219 222 223 230 231 223 214 206 202 202 203 206 210 211 213 215 216 217 215 216 218 219 218 214 210 210 210 209 208 206 203 199 196 190 182 179 182 185 186 190 194 194 198 204 206 204 205 206 195 184 168 141 123 107
231 236 231 225 224 223 221 218 215 217 219 218 221 227 225 216 207 202 203 204 206 208 210 213 215 216 217 217 217 218 220 220 217 213 214 215 214 211 208 205 202 198 193 187 185 187 189 192 196 200 203 208 212 210 202 198 194 184 175 168 156 138 119
237 239 238 225 221 225 221 217 217 219 221 220 219 224 230 227 215 203 201 205 208 210 211 213 214 214 215 216 217 218 220 222 219 215 215 219 219 216 213 210 206 203 198 194 192 192 194 198 202 205 209 212 214 210 202 195 191 186 181 178 175 162 142
252 250 245 230 224 233 230 223 224 223 220 220 222 226 234 238 228 210 200 202 207 211 215 218 219 218 217 216 216 218 220 222 223 219 217 219 221 218 217 215 211 208 205 201 199 198 201 205 206 209 212 213 212 208 203 197 195 194 193 192 193 192 189
254 251 246 238 232 234 234 228 227 226 220 216 220 225 231 238 236 220 201 198 205 211 217 222 224 224 224 221 219 219 220 222 223 222 220 220 221 219 218 219 216 213 211 209 206 205 207 210 211 212 214 213 211 208 205 202 200 202 205 208 210 217 234
252 251 247 240 229 226 233 233 227 226 225 219 218 221 223 228 236 230 210 196 199 207 214 220 224 226 228 227 224 223 223 222 223 223 221 221 223 221 219 220 220 219 217 215 214 213 214 216 216 216 215 213 211 210 208 207 206 208 213 217 220 230 246
246 246 247 241 229 223 232 235 230 228 229 225 219 218 218 218 226 235 230 207 196 200 210 217 220 223 226 228 227 227 226 225 225 224 222 222 224 224 222 222 221 221 221 220 220 219 220 222 221 220 219 216 214 214 212 212 213 214 219 224 227 235 250
240 240 242 240 233 228 230 234 234 231 229 227 222 220 223 222 222 232 239 226 201 194 205 215 218 220 223 226 227 228 228 228 227 227 224 223 223 226 226 225 223 222 222 223 224 224 226 228 229 227 226 222 220 219 219 219 219 221 224 229 233 238 250
229 237 241 242 238 233 230 232 235 232 229 228 225 222 227 229 227 230 238 239 223 200 200 213 220 222 224 225 226 227 229 230 231 230 228 225 224 226 228 228 227 225 223 223 224 226 229 232 233 233 232 229 227 226 225 225 226 227 229 233 236 240 246
217 227 241 247 243 236 229 228 230 231 230 230 227 223 227 230 231 231 235 240 238 222 204 206 219 225 226 227 228 228 230 231 233 233 232 230 228 228 229 230 230 229 227 226 226 227 229 232 234 235 235 233 231 230 230 230 231 233 234 236 239 241 244
223 226 238 245 242 239 233 227 227 229 229 230 228 225 225 227 229 231 235 239 241 237 220 206 216 227 230 231 230 230 232 232 234 234 234 233 232 232 232 232 232 232 231 231 231 230 230 233 235 236 238 238 236 234 234 234 235 237 239 240 243 245 246
223 229 236 238 237 239 237 226 222 227 229 229 230 228 226 227 228 229 235 238 240 240 230 213 214 227 234 235 232 232 234 235 234 235 234 234 233 233 234 235 234 234 234 234 235 235 234 235 237 238 241 243 243 242 241 241 240 241 243 244 245 247 249
213 220 226 229 230 232 233 228 224 227 229 228 229 229 227 227 227 228 234 238 239 241 233 217 215 223 232 238 235 232 234 236 236 237 237 236 235 234 235 236 236 236 235 236 237 238 238 238 240 241 243 246 249 249 248 248 246 244 246 247 246 248 251
205 212 217 221 223 222 223 225 225 225 226 225 226 229 229 228 228 229 235 239 241 242 236 223 218 224 230 237 237 233 233 235 237 238 239 240 239 236 235 236 237 236 235 236 237 238 239 240 242 244 245 247 250 252 251 250 249 246 246 248 249 250 252
203 209 213 217 220 219 217 218 219 220 222 223 224 225 226 228 231 232 234 237 239 242 238 224 214 221 229 233 236 235 233 235 237 239 241 242 241 239 236 236 238 237 235 235 236 238 239 240 243 245 248 249 250 252 252 251 250 248 247 249 251 252 252
206 210 215 219 222 221 217 216 217 216 217 220 223 224 223 224 227 230 232 235 238 241 240 231 217 218 226 230 234 236 234 235 237 239 241 243 244 243 240 239 240 240 239 238 237 238 239 239 242 244 247 250 251 253 254 253 251 251 250 250 252 254 253
209 212 216 219 223 223 222 222 224 223 222 222 223 225 226 226 224 224 226 230 233 235 238 235 225 220 224 227 232 236 235 234 235 238 241 243 245 246 246 244 244 245 245 242 240 241 241 240 241 243 246 249 252 254 255 255 254 254 253 252 253 255 255
212 216 218 220 222 223 224 225 226 228 230 230 229 227 228 229 227 223 223 224 224 227 231 230 223 220 222 225 228 234 237 235 234 236 240 242 245 248 250 250 249 248 248 247 245 244 244 243 243 243 246 248 250 253 255 256 256 256 256 255 254 255 255
213 216 220 222 222 223 223 221 221 223 226 230 234 232 230 232 232 231 229 226 222 222 226 227 222 218 220 221 222 227 234 237 235 235 238 241 243 246 249 251 251 252 252 252 250 248 247 246 245 246 247 249 250 252 254 256 257 257 257 257 256 254 254
213 215 218 220 222 224 225 224 224 223 222 225 232 234 234 235 235 232 231 232 233 231 231 229 222 216 218 221 219 221 227 233 236 237 238 240 242 244 247 249 250 252 253 253 253 251 250 249 249 248 249 250 251 251 253 256 257 258 259 258 257 255 254
214 215 217 219 222 224 226 227 228 229 227 227 230 233 236 238 238 234 230 234 242 244 243 239 229 218 218 223 221 219 222 227 234 238 240 242 241 242 246 247 248 249 250 251 252 252 252 251 250 250 249 250 252 251 252 254 256 257 258 258 258 256 253
213 214 215 219 222 223 224 226 228 230 230 230 231 233 235 238 242 241 234 233 239 241 243 247 244 230 223 227 226 222 221 225 230 236 240 243 243 241 243 246 247 247 247 248 249 250 250 251 251 250 250 251 252 253 253 254 254 256 257 258 259 257 252
214 216 216 218 221 224 224 225 227 228 230 231 232 233 234 235 239 241 239 237 238 236 236 245 252 245 234 234 234 228 224 226 229 233 239 243 244 241 240 242 245 246 246 246 247 247 249 250 251 253 253 253 254 255 255 255 255 255 255 256 257 255 251
214 219 220 219 221 224 225 226 227 227 227 230 232 233 233 234 236 237 236 237 240 238 235 240 249 248 241 240 240 235 229 228 230 233 237 242 244 242 239 239 243 245 247 246 246 245 246 249 251 253 254 254 255 256 257 256 255 253 253 253 253 251 248
218 222 223 223 223 225 225 225 226 225 226 228 230 232 233 236 239 239 238 239 241 242 241 242 243 242 240 241 242 241 236 232 231 233 237 241 245 244 240 239 242 245 247 247 247 246 245 246 249 251 253 255 256 256 256 256 254 252 251 250 249 247 246
225 225 226 226 225 226 226 226 226 225 226 227 228 230 231 234 239 241 241 242 245 247 249 248 244 240 239 241 242 242 240 236 233 234 237 241 245 246 243 242 243 245 247 248 249 249 247 246 246 248 251 254 257 257 255 253 252 250 248 247 246 245 244
223 222 224 225 226 227 227 227 227 227 226 227 228 229 230 232 236 239 240 242 245 248 251 251 248 243 239 238 239 238 238 238 237 236 238 240 244 246 245 245 245 246 248 249 249 249 248 246 245 246 249 253 256 257 253 249 248 247 245 243 244 244 244
217 218 221 222 224 227 227 227 229 229 229 229 229 230 231 232 234 237 239 239 241 245 249 250 250 247 240 236 236 237 237 239 240 239 239 241 243 245 246 247 248 248 249 251 251 250 248 245 243 244 247 251 254 254 249 245 243 243 241 239 240 242 242
216 218 220 221 222 226 228 228 228 229 230 230 230 231 233 234 235 238 239 239 240 243 247 248 249 249 244 238 236 236 237 239 242 241 239 240 242 246 248 249 249 249 250 251 251 250 247 243 241 242 246 249 250 248 243 239 237 236 236 235 237 238 239
222 221 220 221 222 225 228 229 228 228 229 229 230 230 232 234 236 238 239 239 239 241 244 246 246 247 246 242 238 238 238 238 240 239 239 240 242 245 248 250 249 249 249 250 250 248 243 239 238 241 244 247 246 242 237 234 232 232 232 232 233 234 236
224 221 219 221 223 226 228 229 230 229 228 229 229 230 231 233 236 237 237 237 238 239 242 243 242 242 244 244 244 243 242 239 238 238 240 242 243 245 247 248 248 247 247 247 246 245 241 238 238 241 244 244 241 236 232 231 230 229 228 230 232 234 238
224 219 217 220 223 226 228 229 230 230 228 228 230 231 231 233 235 237 236 236 237 238 240 239 239 239 241 244 246 247 246 244 242 242 243 245 245 245 245 244 244 243 242 241 241 240 238 237 238 240 241 238 234 231 230 229 228 228 227 230 233 237 241
223 220 218 219 222 225 228 229 230 230 228 227 230 232 232 233 235 235 235 234 235 236 237 237 237 238 240 242 244 246 248 247 246 245 246 247 246 243 242 241 240 239 238 237 238 238 237 236 237 237 237 234 231 230 229 227 227 228 229 231 235 240 243
220 219 217 218 220 224 227 229 230 231 228 225 227 230 231 232 234 234 233 231 232 233 234 235 235 237 239 241 243 244 246 247 247 247 247 246 244 241 239 238 237 236 236 237 238 238 237 236 236 236 235 233 230 229 228 227 227 230 233 234 237 241 245
218 217 216 217 219 222 226 228 229 231 229 225 225 228 229 230 231 232 230 229 229 231 232 233 234 235 238 240 241 242 243 243 244 246 247 245 241 237 236 237 236 236 236 237 238 238 237 236 236 236 235 233 231 230 230 230 230 232 237 239 240 243 246
218 216 215 216 218 221 225 227 229 230 229 225 223 225 226 227 228 228 227 226 227 229 230 231 231 233 236 238 238 238 239 241 242 243 243 241 237 234 234 236 237 236 237 238 239 240 239 237 236 236 235 234 233 232 232 233 234 235 240 242 243 244 245
Height
5879 5882 5885 5886 5887 5888 5890 5893 5894 5897 5899 5900 5901 5901 5901 5902 5904 5905 5907 5909 5912 5914 5916 5919 5921 5924 5926 5928 5930 5932 5934 5936 5938 5939 5940 5942 5943 5945 5946 5947 5949 5950 5951 5952 5953 5954 5955 5956 5957 5958 5958 5959 5960 5960 5961 5962 5962 5963 5963 5963 5964 5964 5965
5875 5878 5881 5883 5884 5887 5890 5892 5893 5896 5899 5901 5901 5901 5901 5901 5903 5904 5905 5907 5910 5912 5915 5917 5920 5922 5925 5927 5929 5931 5933 5935 5937 5938 5940 5941 5942 5944 5945 5947 5948 5949 5951 5952 5953 5954 5955 5956 5957 5958 5958 5959 5960 5961 5961 5962 5963 5963 5964 5964 5964 5965 5965
5873 5876 5880 5882 5883 5886 5889 5891 5892 5895 5898 5900 5901 5902 5901 5901 5902 5903 5903 5905 5908 5910 5913 5915 5918 5920 5923 5925 5928 5930 5932 5934 5936 5938 5939 5940 5942 5943 5945 5946 5948 5949 5950 5952 5953 5954 5955 5956 5957 5958 5958 5959 5960 5961 5961 5962 5963 5963 5964 5964 5965 5965 5966
5873 5876 5879 5881 5882 5884 5887 5889 5890 5893 5896 5898 5900 5901 5901 5902 5901 5901 5901 5903 5906 5909 5911 5914 5916 5918 5921 5924 5926 5928 5931 5933 5935 5937 5939 5940 5941 5942 5944 5945 5947 5948 5950 5951 5952 5953 5955 5956 5957 5958 5958 5959 5960 5961 5961 5962 5963 5963 5964 5965 5965 5965 5966
5871 5875 5877 5880 5882 5882 5885 5888 5889 5892 5895 5897 5898 5899 5901 5902 5901 5900 5900 5901 5904 5907 5910 5912 5913 5916 5919 5922 5924 5927 5930 5932 5934 5936 5938 5939 5941 5942 5943 5945 5946 5947 5949 5950 5951 5952 5954 5955 5956 5957 5958 5959 5960 5961 5961 5962 5963 5963 5964 5965 5965 5965 5966
5867 5872 5874 5877 5880 5880 5882 5886 5889 5891 5894 5895 5896 5898 5900 5902 5902 5900 5898 5900 5902 5905 5908 5910 5912 5915 5917 5920 5923 5925 5928 5930 5933 5935 5936 5938 5940 5942 5943 5944 5945 5946 5948 5949 5950 5951 5953 5954 5955 5956 5957 5958 5960 5961 5961 5962 5962 5963 5964 5964 5965 5965 5966
5863 5868 5870 5873 5877 5879 5881 5884 5888 5890 5891 5892 5893 5896 5899 5901 5903 5901 5898 5898 5900 5903 5906 5909 5912 5915 5917 5919 5922 5924 5926 5929 5931 5933 5935 5937 5939 5941 5942 5943 5944 5946 5947 5948 5949 5951 5952 5953 5954 5955 5956 5958 5959 5960 5961 5961 5962 5963 5963 5964 5965 5965 5966
5861 5864 5865 5868 5874 5878 5880 5882 5886 5889 5890 5891 5892 5895 5898 5900 5904 5904 5900 5897 5898 5901 5905 5908 5911 5914 5916 5918 5921 5923 5925 5927 5929 5931 5934 5936 5938 5939 5941 5942 5943 5945 5946 5947 5949 5950 5951 5952 5953 5954 5955 5957 5958 5959 5960 5961 5962 5962 5963 5964 5964 5965 5965
5860 5861 5862 5864 5870 5876 5879 5880 5883 5886 5889 5890 5891 5894 5896 5898 5901 5904 5902 5897 5896 5899 5902 5906 5909 5911 5914 5916 5919 5921 5923 5925 5927 5930 5932 5935 5936 5938 5939 5941 5942 5944 5945 5947 5948 5949 5950 5951 5952 5954 5955 5956 5957 5958 5959 5960 5961 5962 5962 5963 5964 5965 5965
5858 5859 5859 5860 5866 5873 5876 5877 5879 5882 5886 5889 5891 5893 5894 5896 5898 5900 5901 5898 5896 5897 5900 5903 5906 5909 5911 5914 5916 5918 5920 5923 5925 5928 5930 5933 5935 5937 5938 5939 5941 5942 5944 5945 5947 5948 5949 5950 5952 5953 5954 5955 5956 5957 5958 5959 5960 5961 5962 5962 5963 5964 5964
5857 5857 5857 5858 5862 5868 5873 5874 5875 5878 5882 5885 5888 5891 5892 5893 5895 5896 5898 5899 5898 5897 5897 5900 5904 5907 5909 5912 5914 5916 5919 5921 5923 5926 5929 5931 5933 5935 5936 5938 5939 5941 5942 5944 5945 5947 5948 5949 5951 5952 5953 5955 5956 5956 5957 5958 5959 5960 5961 5961 5962 5963 5964
5855 5855 5854 5856 5859 5863 5868 5871 5872 5875 5878 5881 5883 5886 5889 5890 5891 5893 5895 5897 5899 5898 5896 5898 5902 5905 5907 5909 5912 5915 5917 5919 5921 5924 5927 5929 5931 5933 5934 5936 5938 5940 5941 5942 5944 5945 5946 5948 5949 5950 5952 5953 5954 5955 5956 5957 5958 5959 5960 5961 5962 5962 5963
5852 5853 5853 5855 5856 5858 5863 5868 5870 5871 5874 5876 5879 5882 5885 5887 5888 5890 5893 5895 5897 5898 5897 5897 5899 5903 5905 5907 5910 5913 5915 5917 5920 5922 5924 5927 5929 5930 5932 5934 5936 5938 5940 5941 5942 5944 5945 5946 5947 5949 5950 5951 5952 5954 5955 5956 5957 5959 5959 5960 5961 5961 5962
5849 5852 5852 5853 5855 5856 5859 5864 5867 5868 5870 5873 5876 5878 5881 5884 5886 5888 5891 5893 5895 5897 5896 5895 5898 5901 5903 5905 5908 5911 5913 5915 5917 5920 5922 5924 5926 5928 5930 5932 5934 5936 5938 5940 5941 5943 5944 5945 5946 5947 5948 5949 5951 5952 5954 5955 5957 5958 5959 5959 5960 5961 5961
5844 5847 5848 5849 5852 5854 5857 5861 5864 5866 5869 5872 5873 5876 5879 5882 5884 5886 5889 5891 5893 5895 5895 5894 5895 5899 5901 5903 5906 5909 5911 5913 5915 5917 5919 5921 5923 5926 5928 5930 5932 5934 5936 5938 5940 5941 5942 5943 5944 5946 5947 5948 5949 5951 5953 5954 5956 5957 5958 5958 5959 5959 5960
5836 5838 5841 5844 5847 5850 5853 5857 5860 5863 5866 5869 5871 5873 5876 5879 5881 5884 5886 5888 5890 5892 5894 5892 5893 5897 5900 5902 5904 5906 5908 5910 5913 5915 5917 5919 5921 5923 5925 5927 5929 5931 5934 5936 5937 5939 5940 5942 5943 5944 5946 5947 5948 5949 5951 5953 5954 5955 5956 5956 5957 5958 5958
5829 5832 5835 5839 5842 5844 5847 5851 5854 5857 5860 5863 5865 5868 5871 5874 5877 5880 5882 5884 5886 5889 5892 5891 5891 5894 5898 5900 5901 5903 5905 5908 5911 5913 5915 5917 5919 5921 5923 5925 5926 5928 5931 5933 5934 5936 5938 5940 5941 5943 5944 5945 5946 5948 5949 5951 5952 5953 5954 5954 5955 5956 5957
5826 5829 5832 5836 5838 5840 5843 5846 5849 5851 5854 5857 5859 5862 5865 5868 5870 5873 5878 5882 5883 5885 5888 5889 5889 5891 5895 5898 5899 5901 5903 5906 5908 5911 5913 5915 5917 5919 5921 5922 5924 5926 5928 5931 5932 5933 5935 5937 5939 5940 5942 5943 5944 5946 5948 5949 5950 5951 5952 5952 5953 5954 5955
5822 5824 5827 5831 5834 5838 5842 5844 5847 5850 5852 5854 5856 5859 5863 5865 5866 5869 5875 5879 5881 5881 5884 5886 5888 5890 5893 5895 5897 5899 5902 5904 5906 5908 5911 5913 5915 5917 5918 5920 5922 5924 5926 5928 5929 5931 5932 5934 5936 5938 5939 5941 5942 5944 5945 5947 5948 5949 5950 5950 5951 5952 5953
5819 5820 5823 5827 5831 5836 5839 5843 5846 5849 5851 5853 5854 5857 5861 5864 5866 5869 5871 5873 5874 5874 5877 5882 5886 5888 5891 5894 5896 5898 5899 5902 5904 5906 5908 5910 5912 5914 5916 5918 5920 5922 5923 5925 5927 5928 5930 5931 5933 5935 5936 5938 5940 5941 5942 5944 5946 5947 5947 5948 5949 5950 5951
5816 5818 5820 5824 5828 5832 5835 5839 5842 5845 5847 5850 5853 5855 5858 5861 5865 5865 5865 5867 5868 5868 5871 5876 5882 5886 5889 5892 5894 5896 5898 5900 5902 5904 5906 5908 5910 5912 5914 5916 5917 5919 5921 5922 5924 5926 5927 5928 5930 5932 5933 5935 5936 5938 5939 5941 5943 5944 5945 5945 5946 5947 5948
5812 5814 5817 5821 5824 5827 5830 5834 5837 5841 5845 5848 5851 5853 5854 5857 5860 5862 5863 5865 5867 5868 5869 5871 5876 5882 5887 5890 5893 5895 5896 5898 5900 5902 5904 5906 5908 5910 5911 5913 5914 5916 5918 5920 5921 5923 5924 5925 5927 5929 5930 5931 5933 5935 5936 5938 5939 5941 5941 5942 5942 5944 5946
5808 5811 5814 5817 5820 5823 5826 5829 5833 5836 5840 5844 5847 5849 5850 5852 5855 5859 5860 5861 5865 5869 5871 5872 5876 5879 5883 5888 5891 5894 5895 5897 5898 5900 5902 5904 5905 5907 5909 5910 5911 5913 5915 5916 5918 5920 5921 5922 5924 5926 5927 5928 5930 5931 5933 5934 5936 5937 5938 5938 5939 5941 5943
5803 5807 5811 5813 5816 5819 5822 5825 5829 5832 5836 5839 5843 5845 5847 5850 5853 5857 5858 5859 5863 5868 5871 5874 5877 5879 5881 5885 5889 5892 5894 5895 5896 5898 5900 5901 5903 5905 5906 5907 5908 5910 5911 5913 5915 5916 5918 5919 5920 5922 5924 5925 5927 5928 5930 5931 5932 5934 5934 5935 5936 5938 5939
5799 5803 5807 5810 5813 5815 5818 5822 5826 5830 5833 5836 5839 5841 5845 5848 5851 5854 5857 5859 5862 5865 5868 5873 5876 5877 5879 5882 5885 5888 5891 5892 5894 5896 5897 5899 5901 5902 5903 5904 5905 5907 5908 5910 5911 5913 5914 5916 5917 5919 5921 5922 5923 5925 5926 5927 5929 5930 5931 5932 5933 5934 5936
5795 5799 5803 5807 5809 5811 5815 5819 5823 5827 5829 5832 5835 5838 5841 5844 5847 5852 5856 5857 5860 5863 5867 5871 5875 5876 5877 5879 5882 5885 5888 5890 5892 5893 5895 5896 5898 5899 5901 5902 5903 5904 5905 5906 5908 5909 5911 5912 5914 5915 5917 5919 5920 5921 5923 5924 5925 5927 5928 5928 5929 5931 5932
5791 5795 5799 5803 5805 5807 5811 5815 5818 5822 5825 5828 5832 5835 5838 5840 5843 5848 5853 5855 5856 5860 5865 5870 5872 5873 5875 5876 5879 5881 5884 5887 5889 5890 5892 5893 5894 5896 5898 5899 5900 5901 5902 5903 5904 5906 5908 5909 5911 5912 5913 5915 5917 5918 5919 5920 5922 5923 5924 5925 5926 5927 5928
5788 5792 5795 5798 5801 5803 5807 5810 5814 5818 5821 5825 5829 5832 5835 5837 5839 5843 5848 5851 5853 5858 5863 5866 5868 5870 5872 5874 5876 5878 5881 5883 5885 5887 5889 5890 5891 5893 5894 5896 5897 5898 5899 5900 5901 5903 5904 5906 5907 5909 5910 5912 5913 5914 5916 5917 5918 5920 5921 5922 5922 5923 5925
5784 5788 5791 5795 5797 5799 5802 5806 5810 5814 5818 5822 5826 5829 5831 5834 5836 5839 5843 5847 5852 5857 5859 5860 5863 5866 5869 5871 5873 5875 5877 5880 5882 5883 5885 5886 5888 5890 5891 5893 5894 5895 5896 5897 5898 5899 5901 5902 5904 5905 5906 5908 5909 5911 5912 5913 5915 5916 5918 5919 5919 5920 5922
5779 5783 5787 5790 5793 5795 5799 5803 5806 5810 5814 5818 5821 5824 5827 5829 5832 5835 5838 5844 5850 5853 5854 5855 5858 5862 5865 5868 5870 5872 5874 5876 5878 5880 5881 5883 5885 5886 5888 5889 5890 5891 5893 5894 5895 5896 5898 5899 5900 5902 5903 5905 5906 5907 5908 5910 5911 5913 5914 5916 5916 5918 5919
5776 5779 5783 5786 5789 5792 5795 5798 5802 5806 5809 5813 5817 5820 5823 5825 5829 5831 5835 5841 5847 5848 5848 5850 5854 5858 5862 5865 5867 5869 5871 5872 5874 5876 5877 5879 5881 5883 5884 5886 5887 5888 5890 5891 5892 5893 5895 5896 5897 5898 5899 5901 5902 5903 5905 5906 5908 5910 5911 5912 5914 5915 5917
5771 5776 5779 5782 5786 5788 5791 5794 5798 5802 5805 5809 5813 5816 5818 5821 5825 5828 5832 5838 5842 5843 5843 5847 5851 5854 5858 5861 5863 5865 5867 5869 5870 5872 5873 5875 5877 5879 5880 5882 5883 5885 5887 5888 5889 5890 5891 5893 5894 5895 5896 5897 5898 5900 5901 5903 5905 5906 5908 5909 5911 5912 5914
5766 5772 5776 5779 5782 5785 5788 5791 5794 5798 5802 5806 5809 5811 5814 5818 5821 5825 5829 5833 5836 5838 5839 5843 5847 5850 5853 5856 5859 5861 5863 5865 5866 5868 5869 5871 5873 5875 5876 5878 5880 5882 5884 5885 5886 5887 5888 5889 5890 5891 5892 5894 5895 5897 5898 5899 5901 5903 5905 5907 5908 5909 5911
5761 5766 5772 5776 5779 5782 5784 5787 5790 5794 5798 5802 5805 5807 5811 5814 5817 5820 5825 5829 5832 5833 5835 5839 5843 5846 5849 5851 5853 5855 5858 5860 5862 5864 5865 5867 5869 5871 5873 5875 5876 5878 5880 5881 5882 5883 5884 5886 5887 5888 5889 5890 5892 5893 5895 5896 5899 5901 5903 5904 5905 5907 5908
5756 5761 5767 5772 5776 5778 5780 5783 5786 5790 5794 5798 5800 5803 5806 5810 5812 5816 5821 5825 5827 5828 5830 5834 5839 5842 5844 5846 5848 5850 5853 5855 5857 5859 5860 5862 5864 5866 5869 5871 5873 5875 5876 5877 5878 5879 5881 5882 5883 5884 5885 5887 5888 5890 5892 5894 5896 5898 5899 5901 5902 5904 5905
5753 5757 5763 5768 5771 5774 5776 5779 5782 5786 5789 5793 5795 5798 5801 5805 5808 5812 5816 5819 5821 5823 5826 5830 5834 5837 5839 5841 5843 5845 5848 5850 5852 5854 5856 5857 5860 5863 5865 5867 5869 5870 5872 5874 5875 5876 5877 5878 5879 5880 5882 5883 5885 5887 5889 5891 5893 5894 5895 5898 5900 5901 5902
5749 5753 5759 5763 5767 5770 5773 5775 5778 5781 5785 5788 5791 5794 5797 5800 5803 5807 5811 5814 5816 5817 5821 5825 5829 5832 5834 5836 5838 5841 5843 5845 5846 5849 5851 5853 5855 5858 5860 5862 5864 5866 5868 5870 5871 5872 5873 5874 5876 5877 5878 5880 5882 5884 5886 5888 5890 5891 5893 5895 5897 5898 5899
5744 5749 5754 5758 5762 5765 5768 5771 5774 5777 5780 5784 5787 5789 5791 5794 5798 5802 5805 5808 5810 5812 5816 5820 5824 5826 5828 5830 5832 5834 5836 5838 5841 5843 5845 5847 5851 5853 5855 5857 5859 5862 5864 5866 5867 5868 5869 5871 5872 5874 5876 5877 5879 5882 5883 5885 5887 5888 5890 5892 5893 5895 5896